Regional Weather Roundup
Issued by NWS Sioux Falls, SD

Home | Current Version | Previous Version | Text Only | Print | Product List | Glossary Off
Versions: 1 2 3 4 5 6 7 8 9 10 11 12 13 14 15 16 17 18 19 20 21 22 23 24 25 26 27 28 29 30 31 32 33 34 35 36 37 38 39 40 41 42 43 44 45 46 47 48 49 50

000
ASUS43 KFSD 191202
RWRFSD

WEATHER ROUNDUP FOR SE SOUTH DAKOTA/SW MINNESOTA/NW IOWA
NATIONAL WEATHER SERVICE SIOUX FALLS SD
700 AM CDT SAT APR 19 2014

NOTE: "FAIR" INDICATES FEW OR NO CLOUDS BELOW 12,000 FEET WITH NO
SIGNIFICANT WEATHER AND OR OBSTRUCTIONS TO VISIBILITY.


SDZ038>040-050-052>070-191300-
SOUTHEAST SOUTH DAKOTA

CITY           SKY/WX    TMP DP  RH WIND       PRES   REMARKS
CHAMBERLAIN      N/A     50  39  66 CALM      29.92R
6HR MIN TEMP:  50; 6HR MAX TEMP:  65;

HURON          CLOUDY    52  40  63 N13       29.86R
6HR MIN TEMP:  52; 6HR MAX TEMP:  59;

MADISON        FAIR      50  41  71 S25G31    29.88S
MITCHELL       PTCLDY    56  42  59 W16G26    29.90R
6HR MIN TEMP:  56; 6HR MAX TEMP:  61; 6HR PCP: TRACE;

SIOUX FALLS    MOCLDY    53  39  59 S18G25    29.94S
6HR MIN TEMP:  53; 6HR MAX TEMP:  57;

WINNER         FAIR      47  38  71 W7        29.94R
YANKTON        PTCLDY    54  39  58 S8        29.97S
$$

MNZ071-072-080-081-089-090-097-098-191300-
SOUTHWEST MINNESOTA

CITY           SKY/WX    TMP DP  RH WIND       PRES   REMARKS
FAIRMONT       FAIR      43  30  61 SE22      30.10F
JACKSON        PTCLDY    46  36  66 S16       30.05S
LUVERNE        PTCLDY    50  39  66 S15       29.97F
MARSHALL       CLOUDY    52  39  62 S26G35    29.89S
6HR MIN TEMP:  48; 6HR MAX TEMP:  54;

MONTEVIDEO     CLOUDY    50  41  71 S18G28    29.90R
PIPESTONE      PTCLDY    50  39  66 S25       29.92F
REDWOOD FALLS  MOCLDY    48  36  63 S28       29.97R
TRACY          MOCLDY    50  40  69 S22G29    29.94S
WINDOM         PTCLDY    46  37  71 SE23G29   30.00F
WORTHINGTON    PTCLDY    46  36  66 S16       30.04R
$$

IAZ001>003-012>014-020>022-031-032-NEZ013-014-SDZ071-191300-
NORTHWEST IOWA

CITY           SKY/WX    TMP DP  RH WIND       PRES   REMARKS
DENISON        PTCLDY    50  39  66 S18G24    30.04S
ESTHERVILLE    PTCLDY    42  34  73 SE18      30.08S
SIOUX CITY     PTCLDY    53  41  63 SE12      30.02R
6HR MIN TEMP:  52; 6HR MAX TEMP:  56;

SPENCER        CLEAR     47  39  74 SE18      30.06F
6HR MIN TEMP:  47; 6HR MAX TEMP:  51;

STORM LAKE     PTCLDY    48  41  76 SE15G21   30.08R
$$

ABBREVIATIONS USED IN REMARKS
   TC - TEMPERATURE IN CELSIUS
  WCI - WIND CHILL INDEX
   HX - HEAT INDEX
  VSB - VISIBILITY




USA.gov is the U.S. government's official web portal to all federal, state and local government web resources and services.